User: anonymous   Login
Location: Oshawa
(43.9000°N, 78.8670°W)
Time: 02:09:56
(UTC-05:00)
Language:

CZ-4C R/B - Orbit

View from above orbital plane
View from above orbital plane
View from above satellite
View from above satellite

Ground track
Ground track

The orbit data is extracted from the following two-line orbital elements,

1 32290U 07055B   15030.86206291  .00006813  00000-0  24440-3 0   677
2 32290 097.5541 112.4999 0081221 333.0946 162.6061 15.25912931398949
Epoch (UTC): 30 January 2015 20:41:22
Eccentricity: 0.0081221
inclination: 97.5541°
perigee height: 432 km
apogee height: 544 km
right ascension of ascending node: 112.4999°
argument of perigee: 333.0946°
revolutions per day: 15.25912931
mean anomaly at epoch: 162.6061°
orbit number at epoch: 39894

The dashed part of the orbit path shows where the satellite is in the earth's shadow,  

DLR